Location: Unspecified
(0.0000°N, 0.0000°E)
Time: 22:43:01
(UTC+00:00)

ARIANE 6 FM1 Upper Stage - Pass Details

Date: 11 December 2025
Orbit: 522 x 611 km, 62.0° (Epoch: 08 December)

Event Time Altitude Azimuth Distance (km) Brightness Sun altitude
Rises 04:40:06 0° 178° (S) 2,815 6.6 -16.8°
Reaches altitude 10° 04:43:00 10° 158° (SSE) 1,894 6.0 -16.1°
Maximum altitude 04:45:52 18° 116° (ESE) 1,450 5.9 -15.5°
Drops below altitude 10° 04:48:41 10° 73° (ENE) 1,851 6.0 -14.8°
Sets 04:51:28 0° 53° (NE) 2,723 6.6 -14.2°
